Zurück zum Katalog

FENGYUN 1C DEB

AktivPO
NORAD 41828·DEBRIS·🇨🇳 China

Gestartet May 10, 1999 von Taiyuan Satellite Launch Center

Loading…

Nächste Überflüge (nächste 24 Stunden)

TLE

AktuellSource: Space-Track

Epoche: Sep 13, 2026, 09:32 UTC

1 41828U 99025EYF 26256.39763405  .00008907  00000-0  18330-2 0  9997
2 41828  98.9215  48.5863 0032490  61.9959 298.4520 14.60465706514627

Verfolge FENGYUN 1C DEB in Echtzeit mit AllMySat

Download on the App Store